[[{"header":{"parameterUnit":"m.s-1","parameterCategory":1,"la1":30.2991,"la2":30.254,"lo1":-89.0895,"lo2":-89.0444,"dy":0.0017,"dx":0.0017,"nx":28,"ny":28,"refTime":"2024-03-15T21:00:00:Z","depth":0,"parameterNumber":2,"parameterNumberName":"U-component_of_WINDS"},"data":[0,0,0,0,0,0,0,0,0,0,0,0,0,0,0,0,0,0,0,0,0,0,0,0,0,0,0,0,0,0,0,0,0,0,0,0,0,0,0,0,0,0,0,0,0,0,0,0,0,0,0,0,0,0,0,0,0,0,-1.6314,-1.6314,0,-1.634,-1.6341,-1.6341,-1.6302,-1.63,-1.6299,-1.6298,-1.6326,-1.6328,-1.633,0,0,0,0,0,0,0,0,0,0,0,0,0,-1.6231,-1.6233,-1.6314,-1.6314,-1.6315,-1.634,-1.6341,-1.6341,-1.6302,-1.63,-1.6299,-1.6297,-1.6325,-1.6328,-1.633,0,0,0,0,0,0,0,0,0,0,0,0,0,-1.6264,-1.6234,-1.6314,-1.6298,-1.6297,-1.634,-1.6341,-1.6341,-1.6302,-1.63,-1.6298,-1.6296,-1.6325,-1.6327,-1.6331,-1.6391,0,0,-1.634,-1.6341,0,0,0,0,0,0,0,0,-1.6262,-1.6267,-1.63,-1.6299,-1.6298,-1.6315,-1.6322,-1.6358,-1.6303,-1.63,-1.6298,-1.6295,-1.6324,-1.6327,-1.6337,-1.6392,-1.6393,-1.634,-1.6342,-1.6343,-1.6344,0,0,0,0,0,0,0,-1.626,-1.6265,-1.6324,-1.6301,-1.6299,-1.629,-1.6293,-1.6328,-1.6324,-1.63,-1.6298,-1.6301,-1.6323,-1.6334,-1.6337,-1.6394,-1.634,-1.6343,-1.6345,-1.6346,-1.6499,-1.6501,0,0,0,0,0,0,-1.6259,-1.6264,-1.6324,-1.6325,-1.6274,-1.6293,-1.6296,-1.6312,-1.6323,-1.6323,-1.6303,-1.6299,-1.633,-1.6334,-1.6338,-1.6408,-1.6343,-1.6346,-1.6348,-1.6497,-1.65,-1.6502,0,0,0,0,0,0,-1.6257,-1.6265,-1.6322,-1.6294,-1.63,-1.6297,-1.6315,-1.6314,-1.6324,-1.6325,-1.6324,-1.6314,-1.6328,-1.6334,-1.6378,-1.6409,-1.6348,-1.635,-1.6494,-1.6498,-1.6501,-1.655,0,0,0,0,0,0,-1.6255,-1.6264,-1.6287,-1.6294,-1.6302,-1.6361,-1.6317,-1.6316,-1.6329,-1.6325,-1.6336,-1.6335,-1.6327,-1.6373,-1.6381,-1.6412,-1.6353,-1.6491,-1.6496,-1.65,-1.6546,-1.6555,-1.6562,0,0,0,0,0,-1.6252,-1.63,-1.6288,-1.6296,-1.633,-1.6363,-1.6368,-1.6356,-1.6332,-1.6355,-1.6355,-1.6335,-1.6405,-1.6378,-1.6386,-1.6419,-1.6489,-1.6495,-1.65,-1.6542,-1.6553,-1.6562,0,0,0,0,0,0,-1.6297,-1.6301,-1.6288,-1.6339,-1.6351,-1.6357,-1.6385,-1.6369,-1.6388,-1.6383,-1.6369,-1.6372,-1.6419,-1.6424,-1.6394,-1.6477,-1.6443,-1.645,-1.6472,-1.6483,-1.6491,-1.6488,-1.6355,0,0,0,0,0,-1.6312,-1.6339,-1.6341,-1.6386,-1.6393,-1.6388,-1.6402,-1.6393,-1.6405,-1.641,-1.6413,-1.6426,-1.6451,-1.6467,-1.649,-1.6547,-1.6548,-1.6573,-1.6581,-1.6588,-1.6594,-1.6624,-1.6634,-1.6519,-1.6519,-1.6518,0,0,-1.6345,-1.6351,-1.6368,-1.6395,-1.6403,-1.6431,-1.6392,-1.6424,-1.6444,-1.6414,-1.6456,-1.6459,-1.6473,-1.6523,-1.6545,-1.6528,-1.6627,-1.6595,-1.66,-1.6602,-1.663,-1.6641,-1.6651,-1.6522,-1.6521,-1.6521,0,0,-1.6419,-1.6426,-1.6464,-1.6473,-1.6485,-1.6482,-1.6491,-1.6499,-1.65,-1.6541,-1.6519,-1.6544,-1.6587,-1.6597,-1.6608,-1.6686,-1.6668,-1.6694,-1.6738,-1.6766,-1.6776,-1.6784,-1.681,-1.682,-1.67,-1.67,-1.67,0,-1.6458,-1.6498,-1.6486,-1.6518,-1.653,-1.6505,-1.6543,-1.6553,-1.6573,-1.6582,-1.6562,-1.6615,-1.6623,-1.6675,-1.6694,-1.6704,-1.6714,-1.6692,-1.6775,-1.6783,-1.679,-1.6816,-1.6826,-1.6703,-1.6703,-1.6703,-1.6702,0,-1.6545,-1.6574,-1.6603,-1.6622,-1.6638,-1.6673,-1.6666,-1.6684,-1.6674,-1.6672,-1.6715,-1.6723,-1.6746,-1.6758,-1.6749,-1.6809,-1.6798,-1.6777,-1.6742,-1.6805,-1.6828,-1.6838,-1.6708,-1.6706,-1.6706,-1.6705,0,0,-1.6646,-1.6658,-1.6669,-1.6677,-1.6689,-1.6711,-1.6746,-1.6768,-1.6783,-1.6798,-1.6826,-1.6864,-1.6844,-1.6857,-1.6848,-1.6874,-1.6934,-1.685,-1.685,-1.6864,-1.7,-1.7015,-1.7026,-1.6923,-1.6925,-1.6926,-1.6999,0,-1.6719,-1.6777,-1.6767,-1.6824,-1.685,-1.6826,-1.6856,-1.6867,-1.6867,-1.6889,-1.689,-1.6916,-1.6889,-1.6896,-1.6921,-1.6922,-1.6961,-1.6916,-1.6949,-1.695,-1.6944,-1.7039,-1.7054,-1.7122,-1.7008,-1.701,-1.7011,0,-1.681,-1.6828,-1.6887,-1.6895,-1.6905,-1.6932,-1.6952,-1.6974,-1.6986,-1.6984,-1.6998,-1.6985,-1.702,-1.6985,-1.7033,-1.7003,-1.7016,-1.7018,-1.7021,-1.7022,-1.6983,-1.7041,-1.7143,-1.7153,-1.7025,-1.7024,-1.7023,0,-1.6877,-1.6915,-1.6955,-1.6963,-1.6974,-1.6993,-1.6998,-1.7009,-1.7023,-1.7041,-1.7049,-1.7072,-1.7083,-1.7101,-1.7094,-1.707,-1.7143,-1.7108,-1.7142,-1.7142,-1.7157,-1.7156,-1.7261,-1.7168,-1.7168,-1.7167,-1.7167,0,-1.6957,-1.6994,-1.6985,-1.701,-1.705,-1.7039,-1.708,-1.7082,-1.7092,-1.7117,-1.7099,-1.7123,-1.7113,-1.7136,-1.7131,-1.7171,-1.7177,-1.7176,-1.7174,-1.7177,-1.7177,-1.7184,-1.7179,-1.717,-1.717,-1.7169,-1.7169,0,-1.7038,-1.7033,-1.7075,-1.7081,-1.7084,-1.7114,-1.7119,-1.7143,-1.7141,-1.7173,-1.718,-1.7178,-1.7205,-1.72,-1.723,-1.7227,-1.7276,-1.7269,-1.7271,-1.7269,-1.7303,-1.7299,-1.7416,-1.743,-1.7329,-1.733,-1.733,0,-1.7089,-1.7116,-1.7126,-1.7141,-1.7147,-1.7172,-1.7186,-1.7177,-1.7192,-1.7208,-1.723,-1.7255,-1.7274,-1.7318,-1.7319,-1.7342,-1.7335,-1.7374,-1.7338,-1.734,-1.7334,-1.7332,-1.7334,-1.7381,-1.7382,-1.7383,-1.7383,0,-1.718,-1.7176,-1.7197,-1.7217,-1.7234,-1.725,-1.7264,-1.7277,-1.7269,-1.7288,-1.7314,-1.7329,-1.7359,-1.7384,-1.7405,-1.7411,-1.7396,-1.7395,-1.7404,-1.7406,-1.7406,-1.7405,-1.7289,-1.7392,-1.7391,-1.739,-1.739,-1.739,-1.7246,-1.7269,-1.7279,-1.7303,-1.7312,-1.7326,-1.7348,-1.7349,-1.7371,-1.7394,-1.7387,-1.7418,-1.7429,-1.7456,-1.7465,-1.7488,-1.7474,-1.7487,-1.749,-1.7493,-1.7496,-1.7403,-1.7493,-1.7492,-1.7492,-1.7492,-1.7492,0,-1.7335,-1.734,-1.7362,-1.7382,-1.7401,-1.7385,-1.7399,-1.7416,-1.7442,-1.7455,-1.7474,-1.7504,-1.7529,-1.7532,-1.7555,-1.7574,-1.7567,-1.758,-1.7578,-1.7579,-1.7509,-1.7498,-1.7585,-1.7585,-1.7585,-1.7585,-1.7585,-1.7585,-1.7383,-1.7421,-1.7419,-1.7462,-1.7467,-1.7496,-1.7505,-1.7518,-1.7527,-1.7562,-1.7581,-1.7584,-1.7592,-1.7616,-1.7637,-1.7638,-1.7647,-1.7662,-1.766,-1.7594,-1.7584,-1.7575,-1.7565,-1.7664,-1.7664,-1.7728,-1.7728,-1.7729]},{"header":{"parameterUnit":"m.s-1","parameterCategory":1,"la1":30.2991,"la2":30.254,"lo1":-89.0895,"lo2":-89.0444,"dy":0.0017,"dx":0.0017,"nx":28,"ny":28,"refTime":"2024-03-15T21:00:00:Z","depth":0,"parameterNumber":3,"parameterNumberName":"V-component_of_WINDS"},"data":[0,0,0,0,0,0,0,0,0,0,0,0,0,0,0,0,0,0,0,0,0,0,0,0,0,0,0,0,0,0,0,0,0,0,0,0,0,0,0,0,0,0,0,0,0,0,0,0,0,0,0,0,0,0,0,0,0,0,1.1101,1.1101,0,1.1169,1.117,1.1171,1.1234,1.1235,1.1236,1.1236,1.1305,1.1306,1.1307,0,0,0,0,0,0,0,0,0,0,0,0,0,1.1024,1.1025,1.1101,1.1102,1.1102,1.1169,1.117,1.1171,1.1234,1.1235,1.1236,1.1237,1.1305,1.1306,1.1307,0,0,0,0,0,0,0,0,0,0,0,0,0,1.1071,1.1026,1.1101,1.1142,1.1146,1.1169,1.117,1.1171,1.1234,1.1235,1.1236,1.1237,1.1304,1.1306,1.1307,1.1294,0,0,1.1313,1.1313,0,0,0,0,0,0,0,0,1.1069,1.1074,1.1135,1.1139,1.1144,1.1194,1.1168,1.1212,1.1234,1.12,1.1236,1.1238,1.1267,1.1272,1.1282,1.1297,1.13,1.1313,1.1314,1.1314,1.1315,0,0,0,0,0,0,0,1.1065,1.1072,1.1128,1.1136,1.1141,1.1157,1.1165,1.1177,1.1226,1.1203,1.1208,1.1216,1.127,1.128,1.1284,1.1301,1.1313,1.1314,1.1315,1.1316,1.1311,1.131,0,0,0,0,0,0,1.1056,1.1068,1.1126,1.113,1.1109,1.1157,1.1166,1.1177,1.1226,1.1235,1.1215,1.1218,1.1277,1.1282,1.1287,1.1276,1.1314,1.1316,1.1317,1.1312,1.1311,1.131,0,0,0,0,0,0,1.1054,1.106,1.1123,1.1101,1.111,1.1158,1.1169,1.1178,1.1188,1.1235,1.1244,1.1216,1.1278,1.1285,1.1293,1.1279,1.1317,1.1318,1.1314,1.1312,1.131,1.1253,0,0,0,0,0,0,1.1051,1.1059,1.1055,1.11,1.1111,1.1127,1.1168,1.1178,1.1191,1.1197,1.1239,1.1247,1.128,1.129,1.1294,1.1282,1.1319,1.1315,1.1313,1.1311,1.1256,1.125,1.1244,0,0,0,0,0,1.1049,1.1035,1.1054,1.1061,1.1106,1.1126,1.1132,1.1171,1.119,1.1186,1.1216,1.1246,1.128,1.129,1.1296,1.1284,1.1316,1.1314,1.1311,1.1259,1.1251,1.1244,0,0,0,0,0,0,1.0986,1.1042,1.1063,1.1064,1.109,1.1137,1.1133,1.116,1.1181,1.1185,1.1232,1.1241,1.1243,1.1265,1.1275,1.1275,1.1302,1.1301,1.1261,1.1253,1.1247,1.1242,1.1321,0,0,0,0,0,1.0972,1.0984,1.1032,1.1028,1.104,1.1084,1.1094,1.1122,1.115,1.1162,1.1192,1.1218,1.1236,1.1246,1.1264,1.126,1.127,1.1255,1.1248,1.1243,1.1241,1.1242,1.1236,1.1302,1.1302,1.1302,0,0,1.0944,1.0976,1.098,1.1017,1.104,1.1052,1.1093,1.1103,1.1112,1.1163,1.1173,1.1196,1.1229,1.1231,1.1234,1.1249,1.1225,1.124,1.1235,1.1236,1.1239,1.1233,1.1227,1.13,1.13,1.1301,0,0,1.0899,1.0924,1.0924,1.0947,1.0982,1.1012,1.1012,1.1055,1.1073,1.1083,1.1122,1.1134,1.1162,1.1184,1.1198,1.1163,1.1192,1.1168,1.1135,1.1136,1.113,1.1126,1.1114,1.111,1.1166,1.1166,1.1166,0,1.0859,1.0878,1.092,1.0929,1.0944,1.0991,1.0992,1.1012,1.1051,1.1061,1.1077,1.1115,1.114,1.1148,1.114,1.115,1.1152,1.1163,1.1128,1.1124,1.112,1.111,1.1105,1.1163,1.1163,1.1163,1.1164,0,1.0828,1.0841,1.0837,1.0875,1.0889,1.0894,1.0937,1.0947,1.0973,1.1001,1.1012,1.1044,1.107,1.1074,1.11,1.1087,1.1096,1.1119,1.1148,1.111,1.1101,1.1098,1.1158,1.1159,1.116,1.1161,0,0,1.0744,1.0806,1.0804,1.0823,1.0866,1.0877,1.0884,1.091,1.0918,1.0944,1.0951,1.0975,1.0997,1.1014,1.1043,1.1043,1.1014,1.1067,1.1068,1.1057,1.1004,1.0986,1.0981,1.1034,1.1033,1.1033,1.1001,0,1.0707,1.0723,1.0761,1.0765,1.0779,1.0825,1.0831,1.0858,1.0885,1.09,1.0929,1.0945,1.0974,1.0984,1.0987,1.1017,1.1005,1.102,1.1041,1.1042,1.1032,1.0976,1.0957,1.0926,1.0998,1.0997,1.0997,0,1.0665,1.0689,1.0694,1.0738,1.0745,1.075,1.0778,1.0792,1.0824,1.0844,1.0863,1.0895,1.0906,1.0932,1.0948,1.0957,1.0969,1.0985,1.0985,1.0989,1.1017,1.0978,1.0917,1.0912,1.0992,1.0992,1.0993,0,1.0604,1.0638,1.0646,1.066,1.0711,1.0714,1.0735,1.0769,1.0783,1.0807,1.0817,1.0842,1.0855,1.0874,1.0912,1.0928,1.0924,1.0953,1.0941,1.094,1.0938,1.0937,1.0877,1.0944,1.0944,1.0944,1.0944,0,1.0558,1.056,1.0619,1.0624,1.0628,1.0673,1.0675,1.0701,1.0731,1.0742,1.0783,1.0792,1.0842,1.0857,1.0887,1.0896,1.0902,1.0918,1.0926,1.0914,1.0912,1.0922,1.0926,1.0943,1.0943,1.0943,1.0944,0,1.0491,1.0531,1.0543,1.0591,1.0603,1.0604,1.0645,1.0652,1.0682,1.0695,1.0701,1.0747,1.0767,1.0808,1.0838,1.0859,1.0861,1.0875,1.085,1.0855,1.0841,1.0842,1.0785,1.0781,1.0849,1.0848,1.0848,0,1.0459,1.0462,1.0511,1.0522,1.0542,1.0558,1.0573,1.0618,1.0631,1.0669,1.0672,1.0695,1.0717,1.0747,1.0783,1.0808,1.0823,1.0801,1.0826,1.0815,1.0823,1.0823,1.0824,1.0796,1.0795,1.0794,1.0793,0,1.0399,1.0419,1.0439,1.0466,1.0483,1.0507,1.0532,1.0539,1.0589,1.0603,1.0625,1.0641,1.0674,1.0697,1.0727,1.0749,1.078,1.0785,1.0784,1.0772,1.0758,1.0766,1.0835,1.0786,1.0787,1.0787,1.0788,1.0788,1.0349,1.0355,1.039,1.0412,1.0436,1.0459,1.0468,1.05,1.0519,1.0549,1.0575,1.0594,1.0628,1.0672,1.0692,1.0708,1.0723,1.072,1.072,1.0719,1.0714,1.0755,1.0714,1.0714,1.0714,1.0715,1.0715,0,1.0292,1.0318,1.0337,1.0372,1.0389,1.0417,1.0448,1.046,1.0477,1.0506,1.0527,1.0552,1.0576,1.0614,1.0641,1.0646,1.0661,1.0652,1.0652,1.0657,1.0699,1.0698,1.0639,1.0639,1.064,1.064,1.064,1.064,1.0264,1.0275,1.0299,1.0323,1.0349,1.0369,1.0384,1.0406,1.043,1.0457,1.0476,1.0502,1.0535,1.0564,1.0587,1.0598,1.0606,1.0592,1.0607,1.0647,1.0654,1.066,1.066,1.0594,1.0593,1.0564,1.0563,1.0563]}]]